Regional Weather Roundup
Issued by NWS

Home | Current Version | Previous Version | Text Only | Print | Product List | Glossary Off
Versions: 1 2 3 4 5 6 7 8 9 10 11 12 13 14 15 16 17 18 19 20 21 22 23 24 25 26 27 28 29 30 31 32 33 34 35 36 37 38 39 40 41 42 43 44 45 46 47 48 49 50

214
ASUS43 KMPX 260110
RWRMN
WEATHER ROUNDUP FOR MINNESOTA
NATIONAL WEATHER SERVICE TWIN CITIES/CHANHASSEN MN
800 PM CDT SAT MAR 25 2017


NOTE: "FAIR" INDICATES FEW OR NO CLOUDS BELOW 12,000 FEET WITH NO
SIGNIFICANT WEATHER AND/OR OBSTRUCTIONS TO VISIBILITY. N/A MEANS
CURRENT SKY AND/OR WEATHER CONDITIONS ARE NOT AVAILABLE.

MNZ060>063-068>070-260200-
   Twin Cities Metro

CITY           SKY/WX    TMP DP  RH WIND       PRES   REMARKS
TWIN CITIES    CLOUDY    40  35  83 E9        30.06S
ST PAUL        CLOUDY    40  37  89 E8        30.07F
CRYSTAL        CLOUDY    41  32  70 E9        30.05S
BLAINE         CLOUDY    43  36  75 E10       30.05F
LAKEVILLE      CLOUDY    37  37 100 NE12      30.05S FOG
EDEN PRAIRIE   CLOUDY    42  35  76 E8        30.04S
SOUTH ST PAUL  CLOUDY    40  38  93 NE5       30.05F
LAKE ELMO      CLOUDY    39  36  87 E10       30.07S
$$
MNZ001>005-007-008-013>017-022>024-027-028-260200-
   Northwest Minnesota

CITY           SKY/WX    TMP DP  RH WIND       PRES   REMARKS
BEMIDJI        CLOUDY    35  28  77 E8        30.06S WCI  28
HALLOCK        PTCLDY    34  34 100 S7        30.00F WCI  28
ROSEAU         CLOUDY    39  30  70 SE9       30.03S
WARROAD        CLOUDY    37  30  75 S7        30.04S
THIEF RVR FALL CLOUDY   N/A N/A N/A SE7       30.03S
CROOKSTON      CLOUDY    36  36 100 SW5       30.04F
FOSSTON        CLOUDY    39  30  70 E6        30.03S
DETROIT LAKES  CLOUDY    41  32  70 SE9       30.04S
MOORHEAD       CLOUDY    37  34  87 SW5       30.04S
PARK RAPIDS    CLOUDY    40  27  59 SE8       30.05S
MAHNOMEN       FAIR      40  31  69 SE7       30.02S
$$
MNZ006-009>011-018-025>026-260200-
   North Central Minnesota

CITY           SKY/WX    TMP DP  RH WIND       PRES   REMARKS
BAUDETTE       CLOUDY    39  27  62 SE9       30.05S
FLAG ISLAND    PTCLDY    37  28  70 SE8       30.03F
INTL FALLS     MOCLDY    36  26  67 SE5       30.10S
WASKISH        PTCLDY    36  28  75 SE5       30.08S
BIG FORK       CLOUDY    36  27  69 SE6       30.11R
LONGVILLE      CLOUDY    34  27  75 CALM      30.09F
GRAND RAPIDS   CLOUDY    32  27  81 SE8       30.14S WCI  25
CRANE LAKE     CLOUDY    34  25  69 SE6       30.16S WCI  29
ORR            PTCLDY    32  23  69 CALM      30.11S
COOK           CLOUDY    32  25  74 SE12G17   30.15S WCI  23
WALKER         FAIR      34  28  77 SE6       30.07S WCI  29
$$
MNZ012-019>021-037-260200-
   Northeast Minnesota

CITY           SKY/WX    TMP DP  RH WIND       PRES   REMARKS
DULUTH         CLOUDY    31  29  92 E16       30.14S WCI  20
ELY            CLOUDY    30  25  80 SE14      30.17S WCI  20
HIBBING        CLOUDY    30  26  85 SE9       30.14F WCI  22
EVELETH        CLOUDY    32  26  78 E8G17     30.17S WCI  25
DULUTH HARBOR  CLOUDY    34  30  86 NE24      30.19R WCI  21
TWO HARBORS    CLOUDY    34  28  80 NE13      30.16F WCI  25
SILVER BAY     CLOUDY    30  28  93 E10       30.18F WCI  21
GRAND MARAIS     N/A     32  24  72 NE15G23   30.25F WCI  22
G MARAIS ARPRT CLOUDY    27  19  74 E7        30.20S WCI  19
$$
MNZ029>031-032-039>041-046>048-054>057-064-260200-
   West Central Minnesota

CITY           SKY/WX    TMP DP  RH WIND       PRES   REMARKS
FERGUS FALLS   CLOUDY    37  30  75 S8        30.07S
WHEATON        CLOUDY    37  34  87 SE9       30.06F
MORRIS         CLOUDY    37  34  87 E5        30.04S
ALEXANDRIA     CLEAR     37  31  78 SE3       30.05S
ELBOW LAKE     FAIR      35  32  87 E6        30.05S WCI  30
WADENA         CLOUDY    39  28  65 E6        30.05S
GLENWOOD       CLOUDY    39  34  81 E7        30.05S
APPLETON       CLOUDY    39  34  81 CALM      30.05S
BENSON         CLOUDY    43  32  65 SE6       30.06F
ORTONVILLE     CLOUDY    37  32  81 E6        30.04F
MADISON        CLOUDY    41  39  93 E7        30.04F
WILLMAR        CLOUDY    41  36  81 E8        30.06S
$$
MNZ033>034-036-042>043-049>051-058-059-260200-
   Central Minnesota

CITY           SKY/WX    TMP DP  RH WIND       PRES   REMARKS
ST CLOUD       CLOUDY    43  34  70 E7        30.06S
SAUK CENTRE    CLOUDY    40  33  76 E5        30.06R
PAYNESVILLE      N/A     40  33  77 E6        30.06S
AITKIN         CLOUDY    36  27  69 NE9       30.09S
PINE RIVER     CLOUDY    36  28  75 E8        30.12S
BRAINERD       CLEAR     35  28  75 NE12      30.08S WCI  27
STAPLES        CLEAR     39  27  60 E3        30.06S
LONG PRAIRIE   CLOUDY    37  32  81 CALM      30.05F
LITTLE FALLS   CLOUDY    43  32  65 CALM      30.06S
LITCHFIELD     CLOUDY    41  36  81 E7        30.06R
BUFFALO        CLOUDY    41  33  72 NE7       30.06S
MAPLE LAKE     CLOUDY    41  35  79 E7        30.06S
HUTCHINSON     CLOUDY    40  36  84 NE7       30.06R
$$
MNZ037-044-045-052-053-260200-
   East Central Minnesota

CITY           SKY/WX    TMP DP  RH WIND       PRES   REMARKS
PRINCETON      CLOUDY    45  34  65 E9        30.07S
MORA           CLOUDY    43  32  65 E5        30.09S
CAMBRIDGE      CLOUDY    45  32  61 E5        30.06S
RUSH CITY      CLOUDY    42  32  66 E6        30.08S
MOOSE LAKE     CLOUDY    32  30  93 NE8G18    30.11F WCI  25
CLOQUET        CLOUDY    30  28  93 E10G18    30.14S WCI  21
MCGREGOR       CLOUDY    32  30  93 E8        30.13R WCI  25
$$
MNZ071>073-080-081-089-090-097-098-260200-
   Southwest Minnesota

CITY           SKY/WX    TMP DP  RH WIND       PRES   REMARKS
MONTEVIDEO     CLOUDY    39  36  87 SE8       30.06F
GRANITE FALLS  CLOUDY    41  37  85 NE9       30.05F
CANBY          CLOUDY    39  37  94 CALM      30.04S FOG
MARSHALL       CLOUDY    39  37  92 E10       30.03S
REDWOOD FALLS  CLOUDY    41  34  76 E8        30.04R
OLIVIA         CLOUDY    39  34  81 E8        30.04S
PIPESTONE      CLOUDY    37  34  87 E13       29.99S FOG
WINDOM         CLOUDY    37  37 100 NE13      30.00S FOG
WORTHINGTON    CLOUDY    36  36 100 NE10      30.00S FOG
JACKSON        CLOUDY    36  36 100 E14       30.00S FOG
TRACY          CLOUDY    40  37  91 E8        30.02S
SLAYTON        CLOUDY    37  36  98 E9        30.01S FOG
$$
MNZ065>067-074>077-082>085-091>093-260200-
   South Central Minnesota

CITY           SKY/WX    TMP DP  RH WIND       PRES   REMARKS
MANKATO        CLOUDY    38  36  92 E12       30.03F
NEW ULM        CLOUDY    37  37 100 E8        30.03S
ST JAMES       CLOUDY    37  37 100 NE12      30.03S FOG
FAIRMONT       MIX PCPN  37  36  96 NE13      30.01S FOG
GLENCOE        CLOUDY    41  37  84 NE6       30.03S
FARIBAULT      DRIZZLE   37  37 100 NE7       30.04S
OWATONNA       LGT RAIN  37  36  93 NE8       30.02S
WASECA         RAIN      36  34  93 NE9       30.03F
ALBERT LEA     DRIZZLE   37  36  93 NE12      29.99F
$$
MNZ078>079-086>088-094>096-260200-
   Southeast Minnesota

CITY           SKY/WX    TMP DP  RH WIND       PRES   REMARKS
ROCHESTER      CLOUDY    37  35  92 E16G23    30.01S
RED WING       CLOUDY    39  36  87 MISG      30.05S
STANTON        LGT RAIN  38  36  91 NE9       30.03S
DODGE CENTER   DRIZZLE   37  36  93 E12       30.01S
WINONA         RAIN      37  36  93 E7        30.06R
AUSTIN         RAIN      37  36  93 E13G18    29.99F
PRESTON        CLOUDY    35  33  92 E12G17    30.01S WCI  27
$$
ABBREVIATIONS USED IN REMARKS
   TC - TEMPERATURES IN CELSIUS
  WCI - WIND CHILL INDEX
   HX - HEAT INDEX
  VSB - VISIBILITY
$$




USA.gov is the U.S. government's official web portal to all federal, state and local government web resources and services.